Regional Weather Roundup
Issued by NWS Newport/Morehead, NC

Home | Current Version | Previous Version | Text Only | Print | Product List | Glossary On
Versions: 1 2 3 4 5 6 7 8 9 10 11 12 13 14 15 16 17 18 19 20 21 22 23 24 25 26 27 28 29 30 31 32 33 34 35 36 37 38 39 40 41 42 43 44 45 46 47 48 49 50
000
ASUS42 KMHX 302025
RWRMHX
WEATHER ROUNDUP FOR EASTERN NORTH CAROLINA
NATIONAL WEATHER SERVICE NEWPORT/MOREHEAD CITY NC
400 PM EDT SAT APR 30 2016

NOTE: "FAIR" INDICATES FEW OR NO CLOUDS BELOW 12,000 FEET
WITH NO SIGNIFICANT WEATHER AND/OR OBSTRUCTIONS TO VISIBILITY

NCZ015>017-031-032-045>047-102-103-302100-
NORTH COAST

CITY           SKY/WX    TMP DP  RH WIND       PRES   REMARKS
EDENTON        CLOUDY    63  56  76 E6        30.17S
ELIZABETH CITY MOSUNNY   63  52  67 NE9       30.17F
KITTY HAWK     CLOUDY    59  51  75 NE8       30.16F
MANTEO         NOT AVBL

$$

NCZ045>047-081-094-103-104-302100-
CENTRAL COAST

CITY           SKY/WX    TMP DP  RH WIND       PRES   REMARKS
FRISCO         CLOUDY    60  54  80 NE8       30.15S
SWANQUARTER    NOT AVBL

$$

NCZ095-097-098-100-101-302100-
SOUTHERN COAST

CITY           SKY/WX    TMP DP  RH WIND       PRES   REMARKS
BEAUFORT       CLOUDY    67  55  65 NE14      30.11F
CEDAR ISLAND   NOT AVBL
JACKSONVILLE   CLOUDY    70  58  65 E10       30.10F
PINEY ISLAND   NOT AVBL
WILMINGTON     CLOUDY    67  58  72 E8        30.09F


$$

NCZ011>013-027>030-043-044-078>080-089-090>093-098-302100-
COASTAL PLAIN

CITY           SKY/WX    TMP DP  RH WIND       PRES   REMARKS
AHOSKIE        CLOUDY    60  52  76 NE5       30.17S
CLINTON        CLOUDY    71  62  73 E3        30.10S
ELIZABETHTOWN  CLOUDY    69  61  75 E3        30.09F
GOLDSBORO      CLOUDY    66  61  82 NE14      30.11S
GREENVILLE     CLOUDY    63  55  77 NE8       30.16S
HAVELOCK       CLOUDY    67  57  70 NE9       30.13F
KENANSVILLE    CLOUDY    69  58  68 NE3       30.11S
KINSTON        CLOUDY    64  57  77 NE10      30.14F
NEW BERN       CLOUDY    65  56  72 E8        30.14F
RICHLANDS      CLOUDY    70  59  68 NE12      30.11F
ROCKY MOUNT    CLOUDY    60  56  86 NE3       30.16S
WASHINGTON     CLOUDY    62  55  76 NE6       30.15S
WHITEVILLE     CLOUDY    73  64  73 NE6       30.07F HAZE

$$

AMZ130-135-150-152-154-156-158-170-250-252-270-ANZ085-086-088-633-658-670-302100-
MARINE OBSERVATIONS

STATION/POSITION TIME  TEMP    WIND        PRES    WAVE   SWELL
                       AIR SEA DIR/SP/G            HT/PER HT/PER
                 (UTC) (F)     (DEG/KT/KT) (MB)    (FT/S) (FT/S)
CHESAPEAKE LIGHT 2000   52      30/ 14/ 15 1022.8
64 E VA BEACH    1950   53 53   10/ 14/ 17 1020.9    6/10   5/10
DUCK             2000   54 67   10/ 12/ 14 1021.3
2 E DUCK         1911      59                N/A     5/10   2/11
OREGON INLET     2000   56 62  360/ 11/ 16 1021.2
13E OREGON INLT  2000      56                N/A     6/11   5/11
HATTERAS CG      2000   59 69   20/ 13/ 18 1020.5
DIAMOND BUOY     1950   58 74   10/ 16/ 17 1020.5    5/ 8   5/ 8
CAPE LOOKOUT     2000   62      40/ 18/ 18 1019.5
BEAUFORT LAB     2000   66 67   40/ 10/ 13 1018.9
30 SE NEW RVR IN 1925      68                N/A     3/10   2/11
27 SE WRIGHTSVLE 2008   66 70   80/ 16/ 21 1019.8
5 SE WRIGHTSVLE  1908   65 68   70/ 14/ 19 1019.9
225 S CAPE HAT   1950   71      60/ 12/ 14 1017.9    5/10   5/10
41 SE CHARLESTON 1950   75 74  100/ 12/ 14 1016.3    2/ 9   2/ 9

$$



USA.gov is the U.S. government's official web portal to all federal, state and local government web resources and services.